C/2017 B3 ( LINEAR )

Japanese version
Home page
Updated on July 8, 2017

---------------------------------------------------------------------

* Profile

Discovery Date January 26, 2017
Magnitude 19.2 mag
Discoverer LINEAR survey (Space Surveillance Telescope, Atom Peak, White Sands Missile Range, NM, USA)

* Pictures

* Orbital Elements

Epoch 2019 Feb. 6.0 TT = JDT 2458520.5
T 2019 Feb. 2.48239 TT                                  MPCW
q   3.9210502            (2000.0)            P               Q
z  -0.0005399      Peri.  284.75058     +0.27592031     +0.96068727
 +/-0.0000109      Node     2.17618     -0.19814918     +0.08819666
e   1.0021168      Incl.   54.17674     -0.94053436     +0.26325145
From 181 observations 2017 Jan. 26-June 14, mean residual 0".4.

* Finding Charts

* Magnitudes Graph

        m1 = 5.7 + 5 log d + 10.0 log r

---------------------------------------------------------------------

The orbital elements are published on M.P.E.C. 2017-N58.
The charts are made with StellaNavigator Ver.10 (AstroArts).
The magnitudes graphs are made with Comet for Windows.

---------------------------------------------------------------------

Copyright(C) Seiichi Yoshida (comet@aerith.net). All rights reserved.